Temperature
25 24 24 25 30 30 28 28 28 28 27 26 25 26 25 25 25 23 20 20 19 19 18 18 18 18 18 18 18 18 18 18 18 18 18 18 18 18 18 18 18 18 18 18 18 18 18 18 18
25 25 25 29 31 29 28 28 28 27 26 25 25 25 25 23 22 20 20 19 19 19 18 18 18 18 18 18 18 18 18 18 18 18 18 18 18 18 18 18 18 18 18 18 18 18 18 18 18
25 25 29 32 30 29 28 28 27 26 26 25 25 24 24 22 21 20 19 19 19 19 18 18 18 18 18 18 18 18 18 18 18 18 18 18 18 18 18 18 18 18 18 18 18 18 18 17 17
26 28 31 31 29 29 29 28 27 27 26 25 25 24 22 21 21 20 19 19 19 18 18 18 18 18 18 18 18 18 18 18 18 18 18 18 18 18 18 18 18 18 17 17 18 18 17 17 17
27 31 32 30 29 29 29 28 28 28 26 25 25 24 22 20 20 19 19 19 19 19 18 18 18 18 18 18 18 18 18 18 18 18 18 18 18 18 18 18 18 18 17 17 17 17 17 17 18
31 33 32 30 29 29 29 28 28 27 26 25 25 24 21 19 20 19 19 19 19 19 19 17 18 18 18 18 18 18 18 18 18 18 18 18 18 18 18 18 18 18 17 17 17 17 17 17 17
32 33 31 30 29 29 29 28 28 27 26 26 25 25 22 20 20 19 19 19 19 19 19 18 18 18 18 18 18 18 18 18 18 18 18 18 18 18 18 18 18 18 18 17 17 17 17 17 18
31 33 32 31 30 29 29 28 27 27 26 25 25 25 23 20 19 19 19 19 19 19 19 18 18 18 18 18 18 18 18 18 18 18 18 18 18 18 18 18 18 18 18 18 17 17 17 17 18
31 33 31 31 31 30 29 28 27 26 25 25 24 25 23 20 19 19 19 19 19 19 19 19 19 18 18 18 18 18 18 18 18 18 18 17 17 17 17 17 18 18 18 18 17 17 17 17 18
33 33 32 32 32 31 29 28 27 27 26 25 24 22 21 20 20 20 20 20 19 19 19 19 18 18 18 18 17 18 18 17 17 17 17 17 17 17 17 18 18 18 18 18 18 18 17 17 17
33 32 32 31 30 30 29 29 28 28 28 26 24 22 21 21 20 21 21 20 20 19 19 19 18 18 18 18 18 18 18 17 17 17 17 17 17 17 17 17 17 17 17 17 17 17 17 17 17
33 32 31 31 30 30 30 29 28 28 28 26 24 23 22 21 21 21 21 20 20 19 19 19 18 18 18 18 18 18 18 18 18 17 17 17 17 17 17 17 17 17 17 17 17 17 17 17 17
32 32 31 30 30 30 29 29 28 27 26 25 24 23 22 22 22 21 21 20 19 19 19 18 18 18 18 18 18 18 18 18 18 17 17 17 17 17 17 17 17 17 17 17 17 17 17 17 17
32 31 30 30 30 29 29 29 28 27 25 24 24 23 23 23 22 21 20 20 20 19 19 19 18 18 18 18 18 18 18 18 18 17 17 17 17 17 17 17 17 17 17 17 17 17 17 17 17
31 32 31 31 30 30 30 29 29 26 25 25 24 23 23 22 22 21 21 20 20 19 19 19 19 19 18 18 18 18 18 18 18 17 17 17 17 17 17 17 17 17 17 17 17 17 17 17 17
32 32 31 31 31 30 30 30 29 26 26 25 25 24 23 22 22 21 21 20 20 20 19 19 19 19 19 18 18 18 18 18 18 18 18 18 17 17 17 17 17 17 17 17 17 17 17 18 18
32 32 32 31 31 31 31 30 29 27 26 26 25 24 23 23 22 22 21 20 20 20 20 19 19 19 19 18 18 18 18 18 18 18 18 18 18 18 18 18 17 17 17 18 18 18 17 17 18
32 32 32 31 31 31 31 30 29 27 27 27 26 25 24 23 23 22 21 21 20 20 20 20 19 19 19 19 18 18 18 18 18 18 18 18 18 18 18 17 17 17 18 17 17 17 17 17 17
32 32 32 32 31 31 31 30 30 28 27 27 27 26 25 24 23 22 21 21 20 20 20 20 19 19 19 19 19 18 18 18 18 18 18 18 18 18 18 18 17 18 17 17 17 17 17 17 17
32 32 32 31 30 31 31 30 30 29 28 27 27 26 25 24 23 22 21 21 21 21 20 20 20 19 19 19 19 19 18 18 18 18 18 18 18 18 18 18 18 17 17 17 17 17 17 17 17
32 32 32 31 31 31 31 31 30 29 28 27 27 26 26 25 24 22 22 22 21 21 20 20 20 19 19 19 19 18 18 18 18 18 18 18 18 18 18 17 17 17 17 17 17 17 17 17 17
31 32 31 31 31 31 31 31 31 30 29 28 27 26 26 25 24 23 22 22 21 21 20 20 20 20 19 19 19 18 18 18 18 18 18 18 18 18 17 17 17 17 17 17 17 17 17 17 17
32 31 31 31 31 31 31 31 32 30 30 29 28 27 26 25 24 23 23 22 21 21 20 20 20 20 19 19 19 19 18 18 18 18 18 18 18 18 17 17 17 17 17 17 17 17 17 17 17
31 31 31 31 32 30 31 31 31 32 31 30 29 27 26 25 24 23 22 22 21 21 20 20 20 20 19 19 19 19 18 18 18 18 18 18 18 17 17 17 17 17 17 17 17 17 17 17 17
31 31 30 30 30 30 30 30 31 31 31 30 29 28 26 25 24 23 22 21 21 21 20 20 20 20 19 19 19 19 19 18 18 18 18 18 17 17 17 17 17 17 17 17 17 17 17 17 17
31 31 30 29 30 31 30 30 32 31 29 29 28 28 26 25 24 23 23 22 21 21 20 20 20 20 19 19 19 19 19 18 18 18 18 17 17 17 17 17 17 17 17 17 17 17 17 17 17
31 31 32 31 31 30 31 31 32 31 30 29 28 27 26 25 24 24 23 22 21 21 20 20 19 19 19 19 19 19 18 18 18 18 18 17 17 17 17 17 17 17 17 17 17 17 17 16 16
31 32 31 31 29 29 30 30 31 31 30 30 29 28 26 25 25 24 23 22 21 21 20 20 19 19 19 19 19 18 18 18 18 18 17 17 17 17 17 17 17 17 17 17 16 16 16 16 16
30 30 31 31 31 30 30 31 32 31 31 30 29 27 26 26 25 24 23 22 21 21 20 20 19 19 19 19 18 18 18 18 18 17 17 17 17 17 17 17 17 16 16 16 16 16 16 16 16
31 31 30 30 29 30 30 31 31 31 31 30 29 27 26 25 24 23 22 21 21 20 20 19 19 19 19 18 18 18 18 18 17 17 17 17 17 17 16 16 16 16 16 16 16 15 15 15 15
Wind_Speed
8 7 5 4 2 10 14 11 10 9 7 8 8 7 9 10 8 10 9 10 10 11 12 12 10 11 12 12 12 13 13 13 14 14 14 14 14 15 15 15 16 16 16 16 16 16 16 16 16
5 5 5 1 7 12 13 11 11 10 9 8 8 9 10 10 10 11 10 10 10 10 11 11 12 11 11 12 12 12 13 13 13 13 14 14 14 14 15 15 15 15 15 15 15 15 15 15 15
5 6 2 6 12 13 13 11 11 10 7 6 6 8 7 9 9 8 11 12 10 10 11 13 10 11 11 11 11 11 12 12 13 13 13 13 13 14 14 14 14 14 15 14 15 14 14 14 14
4 3 2 10 16 14 12 10 9 9 9 7 8 10 8 7 6 10 13 11 11 10 11 13 10 10 10 10 10 11 11 12 12 12 12 12 13 13 13 13 14 14 14 13 14 13 13 13 13
3 1 9 13 15 12 11 9 6 8 7 8 8 12 10 8 11 14 12 11 10 10 11 13 10 10 10 10 10 10 10 11 11 11 12 12 12 12 12 12 13 12 12 12 12 12 12 12 12
1 3 10 13 13 10 9 7 8 10 11 10 11 13 8 9 12 12 11 10 10 10 11 13 11 10 9 10 9 9 10 10 11 11 11 11 11 11 11 11 11 11 11 11 11 11 11 11 11
3 8 12 13 11 10 8 6 7 9 10 9 9 11 9 11 11 11 11 9 9 9 9 10 11 10 9 9 9 9 9 10 10 10 10 10 11 11 10 10 10 11 11 10 10 10 10 9 9
2 5 11 11 10 10 8 8 8 9 10 9 6 8 11 13 12 12 11 9 8 8 8 8 8 8 9 10 9 8 9 9 9 9 9 8 9 10 9 10 10 10 9 9 9 9 9 9 9
1 6 11 10 9 10 9 9 8 8 10 7 6 9 15 17 14 12 11 9 8 7 6 6 8 7 6 8 9 9 9 8 8 9 7 5 6 8 8 10 9 8 8 8 7 7 7 8 10
1 8 11 8 8 9 9 7 8 8 9 9 11 14 17 16 14 12 11 10 9 7 6 6 5 6 5 5 6 5 6 6 4 5 5 4 5 4 7 10 7 7 6 7 6 6 7 6 7
5 8 8 7 7 8 9 8 6 7 7 9 14 17 17 15 13 11 10 8 9 8 6 6 5 5 4 4 3 4 4 4 5 5 4 4 3 4 4 5 7 6 6 5 6 6 3 3 3
5 7 5 7 7 7 8 7 6 5 8 10 15 18 16 14 12 11 10 8 8 7 6 5 6 4 2 2 2 3 3 3 3 4 2 3 2 2 2 2 3 3 3 2 2 2 2 2 2
6 6 7 8 7 7 7 7 6 7 8 13 16 16 15 13 11 9 8 8 7 7 7 6 5 4 3 2 1 2 2 2 3 2 2 1 2 2 2 1 1 1 2 3 2 1 1 1 2
5 7 8 8 8 7 7 7 5 8 11 14 15 14 13 12 11 10 9 8 8 7 7 7 6 6 5 4 2 1 2 1 1 1 1 1 1 1 1 2 2 2 2 1 2 2 2 2 1
7 8 8 6 6 6 7 6 6 10 13 14 13 12 12 11 10 10 9 8 8 8 7 7 7 6 6 5 4 3 2 2 2 2 3 3 3 2 2 2 3 2 2 2 2 2 2 2 2
7 6 5 5 5 5 6 5 9 12 13 13 12 12 11 11 10 9 9 8 8 8 8 8 7 7 7 5 4 3 3 3 3 3 3 4 4 4 4 3 3 3 3 3 2 3 3 2 3
7 4 4 6 5 5 5 4 9 11 12 12 12 12 11 11 10 10 9 9 8 8 8 8 7 7 7 6 5 4 3 3 4 3 3 3 4 5 5 4 3 4 3 3 4 2 3 3 3
5 4 3 3 5 6 6 4 9 11 12 12 12 11 11 11 11 10 9 8 8 8 8 8 8 7 6 5 4 4 4 3 3 3 3 4 5 5 5 4 4 5 3 3 3 3 3 4 4
4 4 3 3 3 6 6 5 8 11 12 12 12 12 11 11 10 9 9 9 9 8 9 9 8 7 6 5 5 4 4 3 3 4 4 4 4 5 5 4 3 4 3 4 5 4 4 4 3
7 6 4 4 2 4 4 5 6 10 12 11 11 12 12 11 10 10 9 9 9 9 9 9 9 8 7 5 4 3 3 3 3 2 2 3 4 4 5 5 4 4 4 5 5 5 5 5 4
8 6 4 3 4 5 5 6 7 9 10 10 11 11 11 12 12 11 11 10 10 9 9 8 7 7 7 6 4 3 3 3 2 2 2 3 4 4 4 4 4 4 5 5 5 6 6 5 4
9 4 4 5 6 3 4 3 6 8 10 11 12 12 12 12 12 12 11 10 9 9 8 7 7 7 6 6 5 5 4 3 3 2 2 2 3 4 4 5 5 5 5 4 6 5 5 6 5
5 3 5 6 6 5 5 6 3 7 8 10 11 12 12 12 11 11 11 10 9 8 8 8 7 6 6 6 6 5 4 3 2 2 1 2 2 3 4 4 4 4 4 4 5 4 6 5 5
6 7 5 7 8 8 4 6 2 3 4 6 9 12 12 12 11 10 10 9 9 8 8 7 7 6 6 6 5 5 4 3 3 2 2 2 1 1 2 3 3 4 3 4 4 4 6 5 6
10 10 8 8 8 6 3 6 2 2 1 3 7 10 12 12 12 11 11 11 10 10 9 8 8 7 6 6 5 5 4 4 4 3 3 2 1 1 1 2 2 2 2 3 3 4 4 5 5
14 14 11 8 7 5 5 5 1 3 2 3 6 9 11 12 12 12 11 11 10 10 10 9 8 7 6 6 5 4 4 3 3 2 2 1 1 1 0 1 1 2 2 2 2 3 3 3 3
14 14 12 10 8 8 5 4 3 4 5 6 7 9 11 12 12 12 12 11 11 10 10 9 8 7 6 5 4 3 3 2 1 1 1 1 0 0 0 0 0 1 1 2 2 2 2 1 2
9 11 9 11 9 10 8 8 5 6 6 7 8 9 11 12 12 12 11 11 10 10 9 9 8 7 6 5 4 3 3 2 1 1 1 2 2 2 2 2 2 2 2 2 2 1 2 2 2
10 12 10 10 10 10 8 5 1 3 5 7 8 9 10 11 12 12 11 11 11 10 10 9 8 7 6 5 4 4 3 3 3 3 3 3 3 3 3 3 3 3 3 3 3 2 2 2 3
14 14 14 12 10 10 10 4 6 2 4 6 8 9 10 10 11 11 11 11 11 10 10 9 8 7 6 6 5 5 4 4 4 4 4 4 4 4 3 3 4 4 4 4 3 3 3 3 4
Wind_Direction
194 186 209 233 126 73 68 67 76 84 74 69 68 67 69 51 55 93 110 115 117 116 112 113 98 95 95 94 94 94 95 95 94 90 88 88 88 89 90 93 96 97 97 98 98 97 96 97 99
180 190 225 240 69 77 69 68 73 72 90 96 81 79 77 69 75 105 120 120 123 114 112 104 101 98 97 95 95 95 96 96 94 91 89 88 88 88 89 92 95 98 99 98 97 97 97 97 99
191 226 291 69 63 67 74 74 82 87 90 93 89 70 68 85 99 111 122 130 123 108 106 104 103 98 97 96 95 95 96 95 94 91 90 89 89 89 91 92 94 97 98 97 95 96 98 98 98
220 213 93 74 73 68 78 86 94 99 87 86 101 90 82 78 99 119 129 130 123 121 113 107 107 104 102 100 99 96 96 95 95 92 91 90 90 91 91 93 94 96 98 97 95 95 96 98 98
245 91 90 80 77 78 81 79 80 85 87 97 103 103 93 81 110 124 131 132 126 117 113 114 109 107 105 103 101 99 99 98 96 94 91 90 91 91 91 92 94 96 96 96 94 95 98 100 100
192 83 81 81 83 87 85 82 85 91 99 103 109 109 95 116 126 131 132 131 124 122 116 115 113 107 105 103 101 100 100 99 97 95 93 91 92 91 93 95 97 98 98 96 96 94 95 100 103
53 71 78 83 92 92 86 84 87 99 105 104 113 110 120 135 133 134 131 128 125 121 119 126 130 125 119 109 103 101 99 99 97 97 96 95 95 95 96 97 97 99 98 98 99 98 96 100 105
21 91 86 85 88 91 102 96 94 103 103 112 114 121 138 144 143 139 137 137 132 128 124 125 121 123 132 126 115 110 105 103 102 101 102 109 116 113 116 113 99 102 102 103 103 102 104 106 111
261 83 80 79 84 102 121 114 102 106 117 108 93 108 129 141 147 146 145 143 139 133 129 130 125 126 126 124 128 136 129 122 134 123 125 156 130 118 127 93 101 105 106 107 107 109 119 128 128
53 74 75 74 82 110 126 118 121 130 122 116 112 114 131 146 154 156 155 154 152 150 146 133 127 124 127 121 132 137 133 128 123 111 123 116 95 97 105 113 112 112 119 127 122 139 165 184 138
71 72 84 95 101 117 127 124 128 131 124 133 139 143 149 154 160 161 158 156 151 156 154 145 138 140 138 127 138 120 118 129 133 121 125 114 126 125 123 136 141 144 160 149 151 180 157 124 116
91 80 87 103 119 128 125 123 125 99 90 127 142 149 155 161 164 164 160 161 158 163 161 155 147 150 141 125 126 143 139 144 131 129 155 132 124 116 115 132 133 156 152 150 176 151 123 123 133
99 97 98 112 125 124 126 119 111 103 112 130 141 152 160 164 164 164 160 163 166 172 173 165 165 159 164 168 201 142 142 140 129 127 136 144 149 140 131 128 162 204 174 173 188 179 130 181 176
103 113 116 122 127 137 135 128 132 120 134 141 150 159 166 168 168 167 171 176 179 183 181 173 179 177 183 185 198 187 163 151 144 153 155 218 190 168 188 184 208 221 216 199 208 187 197 221 203
139 134 129 129 144 147 156 143 144 142 149 154 160 166 170 174 176 181 181 185 186 188 187 187 189 186 196 201 206 201 189 177 204 204 208 225 225 208 228 222 216 217 220 206 220 222 224 223 213
174 177 155 141 168 170 220 131 143 157 163 164 169 173 178 182 187 188 187 190 193 192 189 195 198 190 199 207 217 214 207 198 224 227 222 231 241 232 235 235 231 218 227 224 220 233 234 232 238
194 186 148 149 178 188 222 133 146 167 175 176 179 181 185 185 193 193 194 196 198 199 196 194 203 200 205 205 207 216 215 224 234 236 234 228 236 231 235 243 243 240 238 237 246 210 250 252 255
190 182 169 160 169 206 217 166 157 177 188 188 188 188 189 192 196 195 197 200 201 203 201 201 201 204 206 209 210 223 220 221 232 242 246 244 232 226 238 237 230 243 244 245 250 256 250 259 257
203 211 185 135 155 211 219 201 177 183 196 197 195 194 196 196 190 188 191 196 197 201 201 203 203 197 201 207 215 215 217 225 232 234 236 239 239 230 239 253 226 237 239 253 253 254 246 250 255
209 214 184 146 159 226 226 216 188 191 201 205 203 200 199 193 187 186 190 193 196 198 200 200 202 199 201 204 217 230 237 228 228 246 233 238 230 235 236 243 244 235 243 249 256 254 260 259 242
207 221 210 173 170 205 240 207 193 193 202 207 210 207 202 198 193 190 192 192 191 194 198 199 196 194 201 201 204 208 211 230 224 232 232 239 230 229 251 244 252 249 249 245 249 250 247 259 256
205 211 217 196 219 203 243 250 176 190 199 205 208 207 204 197 194 191 190 189 190 191 190 189 186 192 195 200 209 215 223 233 235 237 234 239 227 236 236 238 242 251 257 254 251 243 252 254 256
202 169 202 212 235 247 229 272 160 180 206 207 205 203 199 192 189 188 187 184 184 183 182 181 181 188 191 199 203 214 228 229 224 220 220 249 239 239 242 238 242 251 259 261 266 268 259 253 256
154 163 181 218 237 242 236 266 234 173 200 198 195 195 192 185 180 178 177 173 176 176 177 174 172 181 189 194 200 211 224 228 231 226 218 222 225 238 249 249 254 258 262 257 253 253 251 258 262
199 206 212 219 226 233 177 251 272 85 159 196 184 183 182 181 176 173 172 171 172 174 173 172 169 176 183 187 195 205 214 215 224 238 220 239 246 234 235 270 272 283 278 271 267 255 263 261 264
211 222 230 238 237 219 187 242 211 115 136 172 177 171 171 175 175 174 172 171 173 174 173 172 169 173 176 181 189 199 211 218 215 221 250 237 260 274 314 277 281 293 297 293 285 272 261 270 275
208 223 239 244 253 253 226 223 217 166 165 159 164 166 168 172 172 172 169 169 169 171 171 171 168 169 171 172 172 180 196 211 213 196 222 218 249 295 57 82 55 12 354 330 313 319 314 320 303
236 218 221 236 238 244 234 233 231 181 175 164 166 166 165 168 170 169 166 167 165 163 160 161 164 162 160 162 166 162 159 158 166 155 91 64 58 43 55 62 57 46 32 21 12 0 13 10 1
194 207 219 229 240 246 244 227 160 194 184 178 169 166 165 167 168 167 164 162 159 156 153 154 154 151 151 151 149 140 134 129 122 103 94 86 74 71 70 66 63 56 50 45 37 25 23 24 17
214 213 209 218 223 239 258 229 108 156 179 169 161 159 160 160 161 159 157 155 155 155 152 151 151 149 147 141 135 129 122 117 109 97 90 91 86 78 73 71 68 59 53 48 43 38 33 27 19
Height
1500 1499 1500 1501 1495 1498 1509 1508 1507 1511 1515 1519 1520 1520 1522 1526 1527 1540 1545 1545 1546 1548 1547 1546 1547 1547 1548 1548 1548 1548 1549 1549 1549 1549 1549 1549 1549 1549 1549 1550 1550 1550 1550 1551 1551 1552 1553 1553 1554
1501 1501 1502 1498 1495 1510 1516 1510 1512 1515 1520 1522 1523 1525 1527 1533 1537 1541 1544 1546 1548 1550 1550 1549 1549 1550 1550 1550 1551 1551 1551 1552 1552 1552 1552 1552 1552 1552 1552 1553 1553 1553 1554 1554 1555 1555 1556 1557 1557
1502 1502 1502 1495 1502 1512 1517 1513 1516 1520 1522 1523 1526 1528 1532 1537 1541 1544 1546 1548 1550 1551 1552 1550 1551 1552 1552 1553 1553 1554 1554 1554 1554 1554 1554 1555 1555 1555 1555 1555 1556 1556 1557 1557 1558 1558 1559 1560 1560
1505 1504 1500 1499 1510 1512 1513 1516 1519 1520 1524 1526 1527 1532 1537 1542 1544 1546 1548 1550 1552 1553 1554 1552 1553 1554 1554 1555 1555 1556 1556 1557 1557 1557 1557 1557 1557 1557 1558 1558 1558 1559 1560 1560 1561 1561 1562 1562 1563
1505 1501 1498 1506 1512 1514 1515 1519 1520 1520 1525 1527 1529 1534 1541 1545 1546 1548 1550 1552 1554 1555 1556 1555 1555 1555 1556 1557 1557 1558 1558 1559 1559 1559 1559 1559 1560 1560 1560 1560 1561 1562 1562 1563 1563 1564 1565 1565 1565
1504 1497 1503 1513 1517 1516 1518 1521 1522 1524 1528 1530 1532 1536 1544 1547 1549 1551 1553 1554 1556 1557 1558 1556 1556 1557 1558 1559 1559 1560 1560 1561 1561 1561 1562 1562 1562 1562 1562 1563 1564 1564 1565 1565 1566 1567 1567 1567 1568
1504 1499 1507 1511 1516 1517 1520 1523 1523 1526 1529 1532 1534 1537 1545 1549 1551 1552 1554 1556 1558 1559 1560 1560 1560 1559 1560 1560 1561 1562 1562 1562 1563 1563 1563 1564 1564 1564 1565 1565 1566 1566 1567 1568 1568 1569 1569 1569 1570
1506 1501 1506 1509 1514 1518 1522 1524 1527 1528 1532 1536 1537 1538 1545 1549 1551 1554 1555 1557 1559 1560 1561 1562 1563 1563 1564 1563 1563 1563 1564 1564 1565 1565 1565 1566 1566 1567 1567 1568 1568 1568 1569 1570 1570 1571 1571 1572 1572
1507 1503 1510 1511 1513 1518 1522 1525 1529 1532 1534 1537 1538 1540 1545 1549 1552 1555 1557 1559 1560 1561 1562 1564 1565 1565 1566 1566 1565 1565 1566 1566 1567 1567 1567 1568 1570 1571 1571 1570 1570 1571 1571 1572 1572 1573 1573 1574 1574
1505 1506 1512 1512 1512 1516 1523 1525 1529 1531 1534 1538 1541 1545 1547 1550 1553 1556 1558 1559 1561 1562 1564 1565 1566 1566 1567 1568 1567 1568 1569 1568 1569 1569 1570 1571 1570 1572 1572 1571 1572 1572 1573 1574 1574 1575 1575 1576 1577
1507 1509 1512 1515 1517 1519 1523 1526 1529 1530 1532 1537 1541 1545 1549 1552 1554 1556 1558 1560 1562 1563 1564 1565 1566 1566 1567 1568 1569 1569 1570 1569 1570 1570 1570 1571 1572 1573 1574 1574 1574 1574 1575 1576 1576 1577 1578 1578 1578
1511 1514 1515 1517 1520 1521 1523 1526 1529 1531 1534 1538 1542 1546 1549 1552 1555 1557 1559 1560 1562 1563 1565 1566 1566 1566 1567 1568 1569 1570 1570 1571 1571 1571 1571 1572 1573 1573 1574 1575 1576 1576 1577 1577 1578 1578 1578 1578 1579
1513 1515 1518 1520 1522 1523 1525 1528 1530 1534 1538 1540 1544 1548 1550 1553 1555 1558 1560 1561 1562 1563 1565 1566 1566 1566 1567 1567 1569 1570 1570 1571 1572 1571 1572 1572 1573 1574 1574 1574 1575 1576 1577 1578 1578 1579 1579 1579 1579
1516 1517 1519 1521 1523 1525 1526 1529 1532 1536 1539 1542 1545 1548 1551 1553 1556 1558 1559 1561 1563 1564 1565 1566 1566 1566 1567 1568 1568 1569 1571 1571 1572 1572 1572 1572 1573 1573 1574 1574 1575 1576 1577 1578 1578 1578 1578 1579 1579
1517 1517 1519 1521 1523 1525 1526 1529 1531 1537 1540 1543 1546 1549 1551 1554 1556 1558 1559 1561 1562 1564 1564 1565 1566 1566 1567 1568 1569 1570 1571 1571 1571 1572 1572 1572 1572 1573 1573 1574 1575 1575 1576 1577 1577 1578 1578 1578 1579
1514 1514 1518 1521 1522 1524 1526 1528 1531 1537 1540 1542 1545 1548 1551 1553 1555 1557 1559 1560 1562 1563 1564 1564 1566 1566 1567 1567 1568 1569 1570 1570 1571 1571 1571 1571 1571 1572 1572 1573 1574 1575 1575 1576 1576 1577 1578 1578 1578
1512 1516 1518 1520 1521 1522 1522 1525 1531 1536 1538 1541 1544 1547 1550 1552 1554 1556 1558 1559 1561 1562 1563 1564 1565 1566 1566 1567 1567 1568 1568 1569 1569 1570 1570 1570 1570 1571 1571 1572 1573 1573 1574 1575 1576 1576 1577 1577 1577
1517 1515 1517 1519 1518 1521 1522 1523 1529 1534 1536 1538 1542 1545 1548 1550 1553 1555 1556 1558 1559 1560 1562 1563 1563 1564 1565 1566 1566 1567 1568 1568 1568 1568 1568 1568 1569 1569 1570 1571 1571 1572 1573 1573 1574 1574 1574 1575 1575
1511 1514 1517 1517 1517 1519 1521 1522 1525 1531 1534 1536 1539 1542 1545 1548 1551 1553 1554 1556 1557 1558 1560 1561 1562 1563 1564 1565 1565 1566 1567 1567 1567 1567 1567 1567 1567 1568 1568 1569 1569 1570 1571 1572 1573 1573 1573 1573 1573
1513 1516 1517 1518 1518 1519 1520 1521 1522 1527 1530 1533 1535 1539 1542 1545 1548 1550 1552 1554 1555 1556 1558 1559 1560 1561 1562 1563 1564 1564 1565 1565 1566 1566 1565 1565 1566 1566 1567 1567 1568 1568 1569 1570 1570 1570 1571 1571 1571
1514 1515 1516 1518 1519 1518 1519 1521 1521 1523 1528 1531 1533 1536 1539 1542 1545 1547 1549 1551 1552 1554 1556 1557 1558 1559 1560 1561 1562 1563 1563 1564 1564 1564 1564 1564 1564 1565 1565 1565 1566 1566 1567 1568 1568 1568 1568 1569 1569
1517 1512 1514 1517 1520 1518 1519 1524 1518 1518 1522 1526 1529 1532 1535 1538 1541 1544 1547 1549 1550 1552 1554 1555 1556 1557 1558 1559 1560 1561 1562 1562 1562 1562 1563 1563 1563 1563 1564 1563 1564 1564 1565 1565 1565 1566 1566 1566 1566
1511 1513 1514 1516 1517 1518 1518 1521 1515 1514 1518 1520 1524 1527 1531 1535 1538 1541 1544 1546 1549 1551 1552 1553 1554 1555 1556 1557 1558 1559 1560 1561 1561 1561 1561 1561 1562 1562 1562 1562 1562 1562 1562 1563 1563 1563 1563 1563 1563
1513 1515 1516 1515 1515 1529 1521 1524 1519 1509 1513 1514 1519 1524 1528 1532 1536 1539 1542 1544 1547 1549 1551 1552 1553 1554 1554 1555 1557 1557 1558 1559 1559 1560 1560 1560 1560 1560 1560 1560 1560 1560 1560 1560 1560 1560 1560 1560 1560
1513 1518 1528 1531 1530 1527 1518 1522 1516 1508 1510 1513 1516 1520 1525 1530 1533 1537 1540 1542 1545 1547 1549 1550 1551 1552 1553 1554 1555 1556 1556 1557 1557 1558 1558 1558 1559 1559 1558 1558 1558 1558 1558 1558 1558 1557 1557 1557 1557
1509 1510 1525 1536 1532 1521 1521 1520 1508 1507 1511 1514 1516 1519 1523 1527 1531 1535 1537 1540 1543 1545 1547 1548 1550 1551 1552 1553 1553 1554 1555 1555 1556 1556 1557 1557 1557 1557 1557 1556 1556 1556 1556 1556 1555 1555 1555 1555 1554
1508 1507 1501 1511 1518 1523 1516 1512 1505 1506 1509 1513 1515 1518 1521 1525 1529 1533 1536 1538 1541 1543 1545 1547 1548 1549 1551 1552 1552 1553 1553 1553 1554 1554 1555 1555 1555 1555 1555 1555 1554 1554 1554 1554 1554 1554 1553 1553 1552
1501 1500 1508 1513 1530 1532 1522 1517 1509 1505 1506 1509 1513 1516 1520 1524 1528 1531 1534 1537 1540 1542 1544 1546 1547 1548 1550 1551 1551 1552 1552 1552 1552 1553 1553 1553 1554 1554 1554 1554 1553 1553 1553 1552 1552 1552 1551 1551 1550
1507 1507 1506 1508 1510 1525 1528 1516 1496 1500 1503 1506 1511 1515 1519 1522 1526 1529 1533 1536 1538 1541 1543 1545 1546 1547 1549 1550 1550 1551 1551 1551 1552 1552 1552 1552 1552 1552 1552 1552 1552 1552 1551 1551 1551 1550 1550 1549 1549
1495 1498 1504 1515 1518 1515 1515 1511 1497 1499 1502 1506 1510 1515 1518 1522 1525 1529 1532 1534 1537 1540 1542 1544 1546 1547 1548 1550 1550 1550 1551 1551 1551 1552 1552 1552 1552 1552 1552 1552 1551 1551 1551 1550 1550 1549 1549 1548 1548